RH
52 53 52 53 50 50 52 49 50 48 48 47 46 44 42 42 43 48 51 48 55 61 66 69 72 74 76 80 83 72 65 73 69 86 88 54 60 70 70 72 59 38 22 14
56 50 55 53 49 46 44 48 50 52 52 46 42 46 38 40 44 46 52 54 57 61 68 71 69 72 78 75 71 70 86 98 97 83 51 61 71 71 73 61 39 25 16 12
57 59 59 58 53 53 54 53 52 55 51 53 52 39 45 51 52 52 52 58 64 65 63 62 67 64 64 72 80 95 97 98 91 55 65 73 76 77 68 52 30 13 8 15
45 47 46 41 38 38 48 54 58 57 57 45 38 44 53 56 58 56 60 52 46 45 46 47 47 59 80 95 99 99 74 53 56 68 72 74 76 61 28 10 9 17 23 21
34 36 35 34 31 32 34 35 36 36 42 48 57 61 61 61 60 53 39 32 31 33 37 37 56 80 77 88 86 50 45 58 68 74 76 62 26 10 10 17 24 22 14 14
38 46 57 38 35 38 50 51 51 54 59 62 63 63 61 57 47 36 24 20 22 26 32 38 42 50 58 63 50 48 61 69 78 73 40 13 11 16 28 29 17 13 14 19
35 46 48 52 50 55 61 52 56 61 64 63 60 58 55 51 41 22 18 18 22 26 31 37 47 44 45 47 50 59 68 74 52 18 12 13 25 34 28 15 14 17 18 22
52 63 61 53 64 61 57 53 48 53 60 60 58 58 55 34 20 18 19 22 25 28 34 40 43 43 43 49 58 65 61 30 16 13 18 34 36 24 16 18 20 22 22 21
59 59 59 54 58 61 59 59 59 62 62 63 60 51 30 20 20 22 24 27 31 35 40 41 40 40 48 58 64 51 25 16 15 24 39 37 22 17 18 21 22 22 24 23
63 61 56 55 56 58 61 65 66 64 60 47 38 28 22 23 25 26 28 32 35 36 33 34 39 49 59 63 44 24 16 18 30 38 28 19 20 21 19 19 17 19 18 17
67 67 65 63 64 67 69 67 63 58 51 34 27 26 27 28 25 26 30 33 34 32 31 38 53 64 60 42 23 17 22 36 37 24 18 17 17 18 15 12 15 18 20 24
78 72 66 63 65 63 58 50 43 39 35 31 31 32 31 25 22 25 30 31 31 32 35 48 61 54 34 21 19 31 38 32 21 18 19 17 16 11 10 13 16 19 24 28
79 79 80 65 56 48 46 34 34 33 34 35 36 32 22 18 20 26 31 35 35 37 43 52 43 26 22 28 42 42 29 21 22 20 18 19 13 10 9 12 15 18 22 29
43 46 53 47 40 37 35 33 36 37 38 38 31 21 20 23 26 33 37 36 33 33 35 29 26 31 43 46 43 32 28 29 23 21 20 13 11 12 16 15 14 17 27 40
58 43 41 39 36 34 37 38 39 42 40 34 27 22 23 26 31 36 35 31 30 30 31 37 42 48 50 47 39 31 28 24 23 20 14 11 14 17 17 18 23 34 40 43
59 50 44 38 36 39 40 41 44 40 27 15 19 21 28 33 38 38 37 37 40 45 49 51 52 56 53 44 32 29 26 26 23 16 12 15 18 18 21 29 38 42 42 45
40 40 42 42 43 42 42 41 25 16 11 12 16 23 36 42 44 45 46 48 54 61 67 67 63 52 44 38 33 29 28 26 19 14 16 19 21 24 29 36 44 46 46 51
48 50 47 40 40 41 30 23 16 8 7 10 19 35 46 51 52 54 56 58 65 73 78 77 64 49 46 40 34 33 29 22 16 16 21 22 23 26 36 46 46 47 51 57
49 40 39 39 39 29 25 15 8 8 13 19 31 46 57 59 60 63 66 69 72 76 80 79 61 54 46 40 37 32 27 19 17 21 23 23 25 31 42 48 49 52 59 66
39 38 36 39 34 26 14 6 6 20 26 26 39 62 67 67 68 71 73 75 80 81 83 73 55 48 41 38 35 30 22 18 20 24 26 26 30 39 48 52 54 58 66 72
37 37 40 36 27 12 6 5 7 27 40 47 55 66 73 76 76 79 83 83 89 91 87 61 51 44 39 35 30 23 19 22 27 28 28 28 36 51 54 55 57 68 74 80
39 41 38 25 12 7 6 6 15 32 41 50 63 75 80 78 76 79 88 90 90 88 59 49 45 41 35 30 24 20 23 29 31 30 29 36 51 57 56 58 67 74 78 81
39 28 23 14 10 7 6 9 16 34 45 56 72 84 86 82 82 87 90 97 88 62 49 47 43 36 29 23 22 24 28 30 29 30 38 51 58 59 59 64 70 77 83 84
32 31 23 14 7 7 10 16 22 40 57 71 85 90 89 87 94 98 93 77 56 50 47 39 32 27 23 22 23 24 26 27 29 36 51 60 61 59 63 73 78 82 84 84
33 26 16 8 6 13 31 48 54 64 78 87 93 95 94 93 92 87 66 54 53 45 34 30 26 24 22 22 23 25 27 31 43 55 59 60 63 65 72 80 82 85 82 80
27 20 11 6 12 30 48 61 76 86 91 91 94 95 95 94 77 59 54 52 37 31 29 26 23 21 21 22 26 32 41 54 62 64 63 64 67 72 78 84 84 86 84 80
11 7 8 15 27 40 57 79 90 93 94 98 100 97 89 68 59 54 40 32 31 29 25 22 22 22 26 32 39 53 62 65 67 66 65 70 73 76 82 86 84 82 80 76
Wind_Speed
24 26 26 38 35 36 37 38 26 29 27 24 21 15 13 15 18 20 21 25 18 18 20 22 24 29 33 36 38 41 42 45 49 50 55 55 48 46 46 46 46 47 49 51
14 21 20 31 33 33 36 39 36 36 27 15 14 19 23 25 24 22 17 20 21 21 22 25 28 31 35 38 40 42 46 49 53 56 50 47 45 45 45 46 47 50 52 56
7 13 12 13 24 25 31 36 35 35 31 28 25 23 18 16 16 16 19 18 19 21 24 27 29 33 37 38 42 44 48 51 54 50 44 43 44 45 46 48 50 53 56 60
6 11 2 12 13 19 23 22 29 30 27 22 20 20 18 17 17 17 18 22 25 27 28 29 31 34 37 39 42 47 52 47 45 43 42 43 44 45 46 49 54 58 61 61
7 13 5 7 13 16 19 20 22 26 24 19 17 16 16 16 17 21 27 29 27 26 28 31 31 32 36 40 46 48 44 41 39 40 41 43 44 46 50 55 58 61 62 60
10 4 7 6 14 17 17 15 19 18 17 16 15 13 14 18 25 30 29 27 27 26 27 29 32 35 38 42 44 41 38 37 38 41 42 44 46 50 54 58 61 60 58 57
15 7 6 10 11 14 13 10 19 19 18 15 14 14 20 27 31 30 29 27 28 28 29 31 34 36 38 40 39 36 35 37 39 40 43 46 50 53 56 59 58 57 57 56
14 8 8 14 17 16 10 8 11 12 12 13 16 22 28 31 30 28 28 28 29 29 30 32 35 38 39 38 36 35 35 37 40 42 46 49 51 54 55 56 57 57 57 56
10 7 9 9 17 16 15 12 12 12 14 19 25 29 29 28 28 28 28 28 28 30 32 35 36 37 36 35 34 35 36 39 42 45 47 50 53 54 55 55 56 56 56 56
12 14 10 10 11 11 12 13 15 19 23 27 28 28 28 28 28 29 29 29 31 33 35 35 36 35 36 35 35 37 39 42 45 47 49 51 52 53 54 54 55 55 55 55
20 19 14 14 15 16 17 19 21 24 27 26 27 26 27 28 31 31 31 32 33 33 33 32 32 33 34 36 38 40 42 45 46 49 50 51 52 53 52 52 53 53 51 50
22 19 18 19 19 20 22 23 23 24 25 24 25 27 29 32 33 32 32 32 32 32 31 30 30 32 35 37 40 43 44 47 49 50 50 51 53 53 51 50 49 46 44 44
20 22 22 18 19 23 21 20 22 22 23 24 26 29 31 32 32 31 31 31 30 29 29 29 30 32 36 39 41 43 47 48 48 49 50 52 52 52 53 49 47 45 41 40
9 14 18 17 15 15 19 21 21 21 23 25 27 30 31 30 30 30 30 28 27 27 28 30 32 35 38 40 43 45 46 46 48 49 50 50 51 50 49 50 50 46 40 41
18 14 13 14 15 17 19 18 19 21 23 27 30 30 29 29 28 27 26 25 25 27 30 33 35 36 39 41 43 45 46 48 49 50 50 50 48 46 46 46 46 46 46 44
18 16 15 16 19 18 17 18 20 24 28 31 30 29 28 27 26 25 25 25 26 28 31 34 36 38 40 42 45 46 47 48 48 49 49 46 45 45 44 44 45 45 46 46
13 14 17 18 16 17 18 20 24 29 32 30 29 28 27 26 25 25 26 26 27 30 33 37 38 40 42 44 46 47 48 48 47 47 45 44 43 43 43 44 45 45 45 44
16 20 16 15 17 17 21 26 32 32 31 29 27 26 26 25 25 26 26 27 30 32 36 39 41 42 43 45 46 48 47 47 47 46 44 42 42 43 43 44 44 45 45 45
17 12 14 17 19 22 28 33 33 31 29 28 27 26 25 26 26 27 28 29 32 36 38 40 41 42 43 44 47 47 46 46 46 43 41 42 42 42 42 43 43 44 44 43
12 14 18 20 23 29 34 32 30 29 28 27 26 25 26 28 29 30 32 33 35 40 42 43 43 43 45 47 47 46 46 46 44 42 41 42 42 42 42 42 42 43 41 38
15 20 22 24 30 31 30 30 29 28 28 28 28 28 28 29 30 32 33 36 37 41 43 42 43 44 46 47 46 46 45 44 42 41 41 41 42 42 42 42 41 39 36 34
22 24 27 31 29 28 29 30 29 29 29 29 29 30 29 30 32 34 37 39 40 42 43 42 44 46 46 47 46 45 44 42 41 41 41 41 41 42 42 40 37 34 31 30
26 29 28 27 27 27 29 31 31 30 30 30 30 30 31 33 34 36 37 38 40 40 42 44 45 46 46 46 45 43 42 41 40 40 40 40 40 40 39 35 33 31 29 28
26 26 26 27 28 30 31 32 32 31 31 29 29 29 31 32 34 37 39 40 40 42 44 45 46 46 46 45 44 42 41 40 39 39 39 39 38 37 35 33 31 29 26 24
23 24 25 27 30 30 30 30 30 30 29 28 28 28 29 32 35 36 37 38 40 43 44 44 44 45 44 43 41 40 39 37 37 37 38 38 37 34 32 30 28 25 23 22
23 25 28 29 30 29 29 30 30 28 28 28 27 28 31 33 34 35 38 41 42 43 44 45 44 43 42 41 39 36 35 35 36 36 37 36 33 31 29 26 24 21 20 20
26 27 29 30 31 30 30 29 27 26 26 25 27 29 30 31 33 37 38 39 41 43 43 43 42 40 39 37 36 36 36 36 36 36 35 33 30 27 23 21 19 18 17 17
Wind_Direction
220 219 222 226 228 228 228 233 232 250 258 266 260 259 244 241 240 246 260 279 277 276 278 284 288 296 305 309 309 315 315 312 314 317 315 315 316 316 315 315 315 314 313 312
206 209 213 222 232 237 238 240 243 250 252 232 230 258 265 256 258 265 271 276 278 280 285 291 299 304 305 307 310 314 312 310 310 312 314 315 315 315 315 314 313 311 311 313
192 203 213 236 231 234 234 235 238 242 254 258 261 264 252 253 261 268 276 281 286 292 297 303 304 302 302 306 308 307 307 304 306 311 313 314 315 316 315 312 312 313 314 316
183 170 203 240 235 230 234 234 236 244 251 251 242 247 251 259 268 277 287 298 305 305 303 302 303 303 304 304 304 300 303 307 310 312 315 316 315 314 313 314 316 318 319 320
186 201 252 242 222 219 218 233 235 239 241 232 229 240 255 267 280 296 307 308 305 301 299 300 301 301 302 301 301 305 312 314 313 313 315 315 314 315 318 320 319 320 321 321
196 204 211 246 222 220 222 229 224 223 223 231 242 254 268 287 302 307 306 307 307 304 304 305 304 305 306 303 308 313 314 315 315 316 316 314 318 320 321 321 320 321 321 320
231 240 262 233 211 204 200 236 220 223 233 242 255 278 297 306 310 311 312 312 310 309 307 306 303 304 306 309 312 315 316 317 315 314 315 318 320 321 321 320 320 320 319 318
217 219 256 226 205 206 229 212 206 219 232 251 281 300 307 307 305 307 310 310 308 306 305 304 306 310 310 312 315 316 316 313 314 315 317 319 320 320 320 320 320 319 318 319
208 215 216 208 216 227 238 244 244 252 271 289 296 298 299 302 308 310 310 310 309 308 307 308 307 308 311 312 314 313 311 312 314 317 319 320 320 321 321 320 319 321 323 323
233 237 234 227 224 232 243 256 271 280 286 292 294 298 304 308 311 312 313 313 311 309 307 307 310 312 311 311 310 310 312 315 317 318 320 321 321 321 321 322 323 326 325 323
246 247 243 245 252 256 262 271 277 282 291 296 300 305 310 314 314 314 314 310 307 305 307 308 309 307 306 308 310 313 316 316 317 319 321 320 321 322 324 326 326 326 324 324
262 257 254 253 250 260 272 279 285 290 294 300 306 311 315 315 313 311 308 306 307 308 307 305 305 305 306 310 313 315 316 317 319 320 320 320 322 324 325 325 324 325 325 325
250 250 250 251 258 273 273 279 286 293 299 305 310 313 311 310 309 308 307 307 306 305 303 304 306 308 309 312 314 316 317 318 319 320 321 323 324 325 324 325 325 326 328 325
248 244 245 247 254 265 276 285 293 298 302 307 310 310 310 309 308 306 305 304 305 304 305 308 310 310 313 314 315 315 316 318 320 322 323 322 324 325 326 325 325 327 328 326
252 244 240 248 261 274 284 292 295 299 304 307 310 311 309 306 305 305 305 306 308 310 310 312 315 315 313 312 314 316 319 322 323 322 322 324 325 324 324 323 324 326 326 326
229 240 255 265 280 288 293 296 299 303 307 309 307 307 307 307 307 307 308 310 312 312 314 315 313 312 313 316 318 320 321 321 321 322 323 324 324 324 324 324 324 325 327 327
220 241 262 276 284 287 292 299 304 309 311 308 306 305 305 306 307 307 309 311 313 314 314 316 317 317 317 318 318 319 321 321 321 322 322 322 324 325 324 324 326 326 326 327
249 269 273 274 281 286 295 304 310 311 308 305 305 305 305 305 304 306 307 309 311 313 315 318 317 317 317 318 319 320 320 321 321 322 322 322 322 324 325 322 324 325 326 327
257 259 273 281 282 290 303 309 310 310 308 308 308 305 303 301 302 305 307 308 308 309 313 316 316 317 317 317 317 319 320 320 320 319 319 321 322 322 323 324 325 326 326 327
247 261 275 276 286 300 304 305 307 308 308 307 305 302 299 300 304 305 305 306 308 310 315 316 315 316 316 318 318 320 319 319 319 320 320 320 321 322 323 325 326 325 326 328
263 273 270 277 294 299 301 305 307 306 306 305 302 298 296 297 298 303 307 308 308 309 311 313 315 316 316 316 318 319 320 320 319 319 319 319 321 323 324 326 326 326 327 327
269 271 279 291 295 300 304 307 306 305 304 302 299 295 294 296 299 303 305 305 307 309 311 314 315 316 316 318 320 319 319 318 318 317 318 320 322 323 324 326 325 326 326 328
278 287 290 293 299 302 302 301 301 301 302 300 296 293 292 293 296 299 301 302 304 308 312 315 315 316 317 318 318 318 317 316 316 317 317 319 322 323 325 325 327 328 330 330
286 286 289 292 296 299 301 301 301 297 296 294 290 288 288 291 296 299 302 306 309 313 315 315 316 317 317 316 316 316 315 315 315 316 317 320 321 324 327 327 326 326 327 328
281 283 290 295 299 302 304 303 300 297 295 292 290 289 292 295 297 300 303 308 312 313 314 315 315 315 315 316 315 314 314 315 316 316 319 322 324 325 325 324 324 323 325 329
292 295 296 297 299 301 303 304 301 298 296 295 293 293 295 297 302 307 311 313 313 314 315 315 314 315 316 316 316 316 316 317 317 317 318 321 323 323 323 323 323 324 325 328
298 298 298 299 301 300 301 302 299 297 295 294 294 296 300 304 308 310 311 313 314 314 314 315 316 316 316 317 318 318 318 318 317 317 319 320 321 320 321 321 323 323 323 327